Home   Weather   Ballia   Past weeks

Flag for India Past Weather in Ballia, Uttar Pradesh, India — Yesterday and Last 2 Weeks

Now
57 °F

Fog.


Feels Like: 56 °F
Forecast: 52 / 74 °F
Wind: 6 mph from Northwest

Location: Patna Airport

Current Time: Dec 10, 2016 at 12:31:02 pm

Latest Report: Dec 10, 2016 at 11:00 am


Visibility: 0 mi

Pressure: 29.98 "Hg

Humidity: 88%

Dew Point: 54 °F

Location of BalliaLocation

Past Weather in Ballia — Graph

°F

Ballia Temperature Yesterday

Maximum temperature yesterday: 66 °F (at 1:30 pm)
Minimum temperature yesterday: 57 °F (at 5:30 am)
Average temperature yesterday: 62 °F

High & Low Weather Summary for the Past Weeks

 TemperatureHumidityPressure
High82 °F (Nov 30, 1:00 pm)100% (Nov 26, 5:30 am)30.15 "Hg (Nov 26, 5:30 am)
Low52 °F (Dec 10, 5:30 am)47% (Nov 26, 12:00 pm)29.62 "Hg (Nov 26, 3:00 pm)
Average68 °F83%29.95 "Hg
* Reported Nov 25 10:30 am — Dec 10 11:00 am, Ballia, Weather by CustomWeather, © 2016

Note: Actual official high and low records may vary slightly from our data, if they occured in-between our weather recording intervals... More about our weather records

Advertising

Ballia Weather History for the Previous 24 Hours

Scroll right to see more
 ConditionsComfort  
Time TempWeatherWind HumidityBarometerVisibility
11:00 am
Sat, Dec 10
57 °FFog.6 mph88%29.98 "Hg1 mi
10:30 am55 °FFog.3 mph94%29.98 "Hg1 mi
10:00 am55 °FFog.5 mph94%30.01 "Hg1 mi
9:30 am55 °FFog.5 mph94%30.01 "Hg1 mi
9:00 am55 °FFog.3 mph94%30.01 "Hg1 mi
8:30 am54 °FFog.5 mph100%30.01 "Hg1 mi
8:00 am54 °FFog.2 mph100%29.98 "Hg0 mi
7:30 am54 °FFog.2 mph100%29.98 "Hg0 mi
6:30 am54 °FFog.No wind94%29.95 "Hg0 mi
5:30 am52 °FFog.2 mph100%29.95 "Hg1 mi
8:30 pm
Fri, Dec 9
57 °FFog.2 mph94%29.95 "Hg1 mi
8:00 pm57 °FFog.3 mph94%29.95 "Hg1 mi
7:30 pm57 °FFog.3 mph94%29.92 "Hg1 mi
7:00 pm61 °FFog.2 mph88%29.92 "Hg1 mi
6:30 pm61 °FFog.3 mph94%29.89 "Hg1 mi
6:00 pm63 °FFog.No wind83%29.89 "Hg1 mi
5:30 pm63 °FFog.No wind83%29.89 "Hg1 mi
4:30 pm66 °FHaze.3 mph64%29.86 "Hg1 mi
4:00 pm66 °FHaze.3 mph64%29.86 "Hg1 mi
3:30 pm66 °FHaze.6 mph64%29.89 "Hg1 mi
3:00 pm66 °FHaze.3 mph64%29.89 "Hg1 mi
2:30 pm66 °FHaze.5 mph64%29.89 "Hg1 mi
1:30 pm66 °FHaze.6 mph64%29.89 "Hg1 mi
1:00 pm64 °FHaze.5 mph68%29.92 "Hg1 mi
12:30 pm63 °FScattered clouds.6 mph77%29.92 "Hg1 mi
12:00 pm61 °FFog.6 mph88%29.95 "Hg1 mi
Weather by CustomWeather, © 2016

See weather overviewHow to use our weather pages